This is the latest recevied weather packets stored in our database for station/object AB4KY. If no packets are shown the sender has not sent any weather packets the latest 10 day(s).
| Time | Temp. | Humidity | Pressure | Rain* | Wind** | Luminosity | Snow |
|---|---|---|---|---|---|---|---|
| 1777353152 | 15° C | 99% | 1010 hPa | 12.7 mm | - | 0 W/m² | - |
| 1777352849 | 15° C | 99% | 1010.8 hPa | 33.53 mm | - | 0 W/m² | - |
| 1777352548 | 15° C | 99% | 1011.7 hPa | 48.51 mm | - | 0 W/m² | - |
| 1777352245 | 15° C | 99% | 1012.2 hPa | 44.96 mm | - | 0 W/m² | - |
| 1777351942 | 15° C | 99% | 1010.8 hPa | 34.8 mm | - | 0 W/m² | - |
| 1777351640 | 16.11° C | 99% | 1009.8 hPa | 11.43 mm | - | 0 W/m² | - |
| 1777351337 | 16.11° C | 99% | 1007.9 hPa | 3.56 mm | - | 0 W/m² | - |
| 1777351031 | 16.11° C | 99% | 1006.5 hPa | 3.56 mm | - | 0 W/m² | - |
| 1777350728 | 16.11° C | 99% | 1006.9 hPa | 1.78 mm | - | 0 W/m² | - |
| 1777350424 | 16.11° C | 99% | 1007 hPa | 5.33 mm | - | 0 W/m² | - |
| 1777350121 | 16.11° C | 99% | 1006.4 hPa | 4.83 mm | - | 0 W/m² | - |
| 1777349818 | 16.11° C | 99% | 1006.3 hPa | 2.29 mm | - | 0 W/m² | - |
| 1777349516 | 16.11° C | 99% | 1006.3 hPa | 0.51 mm | - | 0 W/m² | - |
| 1777349214 | 16.11° C | 99% | 1006.9 hPa | 0 mm | - | 0 W/m² | - |
| 1777348910 | 16.11° C | 99% | 1007 hPa | 0 mm | - | 0 W/m² | - |
| 1777348609 | 16.11° C | 99% | 1006.4 hPa | 0 mm | - | 0 W/m² | - |
| 1777348306 | 16.11° C | 99% | 1007 hPa | 0 mm | - | 0 W/m² | - |
| 1777348004 | 16.11° C | 99% | 1007.7 hPa | 0 mm | - | 0 W/m² | - |
| 1777347702 | 16.11° C | 99% | 1008 hPa | 1.27 mm | - | 0 W/m² | - |
| 1777347399 | 16.11° C | 99% | 1008.1 hPa | 1.27 mm | - | 0 W/m² | - |
| 1777347094 | 16.11° C | 99% | 1007.7 hPa | 1.78 mm | - | 0 W/m² | - |
| 1777346790 | 16.11° C | 99% | 1007.6 hPa | 6.1 mm | - | 0 W/m² | - |
| 1777346487 | 16.11° C | 99% | 1008.1 hPa | 4.83 mm | - | 0 W/m² | - |
| 1777346184 | 16.11° C | 99% | 1008.5 hPa | 0 mm | - | 0 W/m² | - |
| 1777345881 | 16.11° C | 99% | 1006.2 hPa | 0 mm | - | 0 W/m² | - |
* Rain latest hour (hover to see other rain measurements)
** Current wind speed in m/s (hover to see current wind gust speed)